Location: Allos
(44.2333°N, 6.6333°E)
Time: 06:33:02
(UTC+00:00)

ZACube-1 - Visible Passes

Search period start: 11 May 2021 00:00
Search period end: 21 May 2021 00:00
Orbit: 584 x 664 km, 97.6° (Epoch: 10 May)

Date Brightness Start Highest point End Pass type
(mag) Time Alt. Az. Time Alt. Az. Time Alt. Az.
12 May ? 03:17:36 10° NE 03:20:24 16° E 03:23:09 10° SE visible
13 May ? 03:35:33 10° NE 03:39:16 24° E 03:42:55 10° SSE visible
17 May ? 03:14:58 10° NE 03:17:33 15° E 03:20:06 10° SE visible
